FW0030 Weather Reports


time (UTC)temp
C
wind
direction
speed
KPH
gust
KPH
rain 1hr
cm
rain 24hr
cm
rain mn
cm
humidity
%
barometer
mb
20260506073008 7 10 0.0 0.0 0.25 2.62 0.61 94 1007.0
20260506071507 7 4 0.0 0.0 0.28 2.57 0.56 95 1007.0
20260506061558 8 38 0.0 0.0 0.13 2.29 0.28 96 1007.1
20260506044546 9 32 0.0 0.0 0.15 2.13 0.13 96 1008.0
20260506043042 9 19 0.0 0.0 0.18 2.08 0.08 97 1008.0
20260506041542 9 26 0.0 0.0 0.25 2.06 0.05 97 1008.2
20260506040038 9 70 0.0 0.0 0.25 2.01 0.00 97 1008.2
20260506034539 10 259 0.0 0.0 0.38 1.98 1.98 97 1008.5
20260506033038 9 248 0.0 0.0 0.41 1.91 1.91 97 1008.9
20260506031537 9 270 0.0 0.0 0.36 1.80 1.80 97 1008.1
20260506030055 9 50 0.0 0.0 0.36 1.75 1.75 96 1007.9
20260506024544 9 34 0.0 0.0 0.33 1.60 1.60 96 1008.2
20260506023033 9 41 0.0 0.0 0.25 1.50 1.50 96 1008.2
20260506021532 9 27 0.0 0.0 0.20 1.42 1.42 96 1008.0
20260506020032 9 14 0.0 0.0 0.20 1.40 1.40 96 1008.1
20260506014534 9 336 0.0 0.0 0.08 1.27 1.27 96 1008.0
20260506013031 9 61 0.0 0.0 0.15 1.24 1.24 96 1007.6
20260506011536 9 14 0.0 0.0 0.25 1.24 1.24 96 1007.7
20260506010027 9 32 0.0 0.0 0.30 1.19 1.19 96 1007.5
20260506004543 9 53 0.0 0.0 0.66 1.19 1.19 95 1007.3
20260506003033 9 69 0.0 0.0 0.61 1.09 1.09 95 1007.8
20260506001526 9 360 0.0 0.0 0.53 0.99 0.99 95 1007.9
20260506000024 10 79 0.0 0.0 0.41 0.86 0.86 94 1007.8
20260505234518 10 20 0.0 0.0 0.08 0.53 0.53 94 1007.6
20260505233017 11 6 0.0 0.0 0.05 0.48 0.48 94 1007.2
20260505231521 11 28 0.0 0.0 0.05 0.46 0.46 94 1007.1
20260505230014 11 32 0.0 0.0 0.05 0.46 0.46 93 1007.1
20260505224509 12 7 0.0 0.0 0.33 0.46 0.46 92 1007.5
20260505223005 13 27 0.0 0.0 0.30 0.43 0.43 95 1007.1
20260505221505 13 345 0.0 0.0 0.30 0.41 0.41 94 1007.2
20260505220003 13 349 0.0 0.0 0.30 0.41 0.41 93 1007.3
20260505214605 13 288 0.0 0.0 0.03 0.13 0.13 92 1007.0
20260505213111 13 339 0.0 0.0 0.03 0.13 0.13 92 1006.5
20260505211555 14 321 0.0 0.0 0.00 0.10 0.10 90 1006.6
20260505210052 15 311 0.0 0.0 0.00 0.10 0.10 90 1006.5
20260505204550 15 347 0.0 0.0 0.00 0.10 0.10 90 1006.2
20260505203051 15 345 0.0 0.0 0.00 0.10 0.10 90 1006.4
20260505201547 16 358 0.0 0.0 0.08 0.10 0.10 89 1006.4
20260505200044 16 4 0.0 0.0 0.10 0.10 0.10 88 1006.3
20260505194549 16 299 0.0 0.0 0.10 0.10 0.10 87 1006.5
20260505193101 16 262 0.0 0.0 0.10 0.10 0.10 84 1006.8
20260505191540 17 274 0.0 0.0 0.03 0.03 0.03 77 1006.8
20260505190040 17 305 0.0 0.0 0.00 0.00 0.00 74 1006.5
20260505184537 17 271 0.0 0.0 0.00 0.00 0.00 73 1006.6
20260505183034 18 264 0.0 0.0 0.00 0.00 0.00 72 1006.6
20260505181535 18 310 0.0 0.0 0.00 0.00 0.00 70 1006.5
20260505180038 19 289 0.0 0.0 0.00 0.00 0.00 69 1006.3
20260505174531 18 320 0.0 0.0 0.00 0.00 0.00 69 1006.2
20260505173029 20 335 0.0 0.0 0.00 0.00 0.00 65 1006.1
20260505171528 20 257 0.0 0.0 0.00 0.00 0.00 63 1005.8
20260505170026 20 236 0.0 0.0 0.00 0.00 0.00 61 1005.7
20260505164526 21 255 0.0 0.0 0.00 0.00 0.00 60 1005.6
20260505163030 21 277 0.0 0.0 0.00 0.00 0.00 61 1005.6
20260505161523 20 278 0.0 0.0 0.00 0.00 0.00 62 1005.5
20260505153021 20 276 0.0 0.0 0.00 0.00 0.00 65 1005.6
20260505151512 19 250 0.0 0.0 0.00 0.00 0.00 68 1005.7
20260505140107 17 168 0.0 0.0 0.00 0.00 0.00 77 1005.4
20260505124557 17 332 0.0 0.0 0.00 0.00 0.00 75 1004.9
20260505123058 17 197 0.0 0.0 0.00 0.00 0.00 74 1004.8
20260505121549 17 210 0.0 0.0 0.00 0.00 0.00 73 1004.7
20260505120055 17 241 0.0 0.0 0.00 0.00 0.00 70 1005.0
20260505114549 17 236 0.0 0.0 0.00 0.00 0.00 70 1004.5
20260505113050 17 217 0.0 0.0 0.00 0.00 0.00 69 1004.4
20260505111541 17 261 0.0 0.0 0.00 0.00 0.00 69 1004.3
20260505101530 -17 0.0 0.0 0.00 0.00 0.00 1003.3
20260505100028 -17 0.0 0.0 0.00 0.00 0.00 1003.3
20260505094519 18 243 0.0 0.0 0.00 0.00 0.00 69 1003.0
20260505093017 17 195 0.0 0.0 0.00 0.00 0.00 68 1002.8
20260505091520 17 212 0.0 0.0 0.00 0.00 0.00 69 1003.2
20260505090016 18 189 0.0 0.0 0.00 0.00 0.00 69 1003.0
20260505084515 18 205 0.0 0.0 0.00 0.00 0.00 69 1003.0
20260505083018 17 258 0.0 0.0 0.00 0.00 0.00 70 1002.9
20260505081515 17 184 0.0 0.0 0.00 0.00 0.00 71 1002.7